GEFSNE_500_meanwind_024.txt.gz
Wind_Speed
62 64 67 69 70 70 69 68 67 65 63 63 62 61 62 63 63 63 63 63 63 63 63 63 63 63 63 63 63 63 61 60 58 57 56 55 54 53
65 67 69 70 70 69 68 68 68 68 67 65 64 62 61 61 61 61 61 61 61 61 61 61 61 61 62 63 64 64 63 62 60 58 57 56 54 53
66 68 69 70 69 69 69 69 68 68 68 64 62 59 55 53 51 51 52 51 51 52 52 53 53 54 56 59 61 62 62 62 60 59 57 56 54 53
68 69 69 69 69 68 68 67 65 63 61 56 51 47 43 41 41 40 39 39 40 42 43 44 44 45 47 51 53 56 57 58 58 58 57 56 54 53
68 68 68 68 67 66 64 60 56 52 49 45 39 36 35 35 33 32 32 32 33 34 35 36 37 39 41 43 45 47 50 52 54 55 55 54 54 52
66 67 66 65 63 59 54 49 46 42 40 36 31 30 30 29 29 28 28 28 28 29 30 31 32 33 35 36 38 40 43 45 48 49 51 52 52 52
64 64 62 58 53 49 45 42 39 36 33 29 27 26 27 27 26 26 24 24 24 26 26 27 27 28 30 31 32 34 36 38 41 43 46 48 49 50
60 57 53 49 46 43 40 37 33 30 27 24 23 23 24 23 22 20 19 19 19 20 20 20 20 21 22 23 25 27 29 31 34 38 42 44 47 49
52 48 44 42 40 37 33 30 27 25 22 20 19 20 18 17 15 14 13 12 12 14 13 13 13 14 15 16 17 20 23 27 30 33 37 40 43 45
43 41 39 37 34 30 26 23 20 17 15 14 14 13 12 11 10 9 8 8 7 7 7 7 7 8 9 11 13 16 19 23 26 29 33 37 40 42
37 36 34 30 27 22 18 14 10 9 9 9 8 8 7 7 6 6 6 6 5 5 5 5 6 7 8 9 12 15 18 22 25 27 30 34 37 39
32 31 28 24 19 14 10 7 5 4 5 4 4 5 5 6 6 7 7 7 7 7 7 7 7 8 9 11 12 14 17 20 24 27 30 33 35 37
25 23 19 16 11 8 6 5 5 5 5 6 6 6 7 7 8 9 10 10 10 9 8 8 7 8 9 11 12 15 17 20 23 25 28 31 34 35
18 15 12 9 7 7 7 7 8 8 8 8 8 8 8 9 10 11 11 11 9 7 5 3 3 4 5 7 9 11 15 18 22 24 27 29 32 33
13 10 7 6 7 8 9 10 10 10 9 9 9 9 10 11 12 12 12 11 8 5 5 4 4 4 3 3 5 8 11 15 19 22 26 28 30 32
8 6 6 7 9 10 10 10 10 10 9 9 10 11 12 13 13 13 13 12 10 9 10 10 9 8 8 6 4 3 6 9 14 19 23 26 29 31
5 5 7 9 11 11 11 11 10 9 10 11 12 13 13 14 15 15 15 15 14 12 12 13 13 13 13 13 12 11 10 10 11 14 20 24 28 30
4 7 10 12 12 12 11 10 10 10 10 12 13 14 15 16 17 17 18 17 16 16 16 17 18 19 19 19 18 18 17 16 16 17 19 22 27 30
8 11 12 13 12 12 11 11 10 11 11 13 14 14 16 17 18 20 21 20 19 18 19 20 21 22 22 21 22 24 24 23 22 21 21 22 24 28
12 13 13 13 13 12 12 11 11 11 12 13 14 15 16 18 20 21 22 22 22 22 22 22 23 23 23 23 23 26 27 27 26 25 24 23 23 25
13 14 14 13 13 12 11 11 11 12 12 13 14 16 17 19 21 22 23 24 24 25 24 24 24 24 23 23 24 26 27 28 28 28 28 26 23 22
14 14 13 13 12 12 11 11 11 11 12 13 14 16 17 19 20 22 23 24 25 26 26 26 26 25 25 25 24 24 26 27 27 27 28 29 27 25
13 12 12 12 12 11 11 10 10 11 12 13 15 16 17 18 19 20 21 23 24 25 27 27 28 27 27 26 26 26 27 27 26 25 25 26 26 25

GEFSNE_500_meanwind_030.txt.gz
Wind_Speed
65 66 66 67 68 70 70 69 69 68 67 69 72 72 73 73 72 71 70 69 68 67 66 65 63 61 61 61 60 59 58 57 56 55 54 51 49 47
67 67 68 68 69 69 68 69 69 70 70 70 72 73 72 69 66 64 62 61 60 60 60 60 60 59 59 60 61 61 60 60 59 58 57 55 53 51
66 66 67 66 66 67 67 69 70 72 72 70 70 68 65 61 56 54 52 50 48 48 48 49 50 52 54 56 59 60 61 61 61 60 60 58 57 54
63 63 63 64 64 65 66 68 69 70 69 66 61 57 54 50 47 45 43 40 39 38 39 40 42 44 47 50 53 56 59 61 62 62 61 60 59 58
61 61 60 61 62 63 65 66 65 64 62 57 51 47 43 41 38 35 33 32 31 31 32 33 35 37 39 42 45 48 53 56 59 60 61 61 61 60
59 58 58 59 61 62 61 60 58 54 50 47 41 37 34 33 30 28 28 28 27 28 28 28 29 30 32 34 37 41 45 49 53 57 59 61 61 61
55 55 56 58 58 57 54 51 47 43 39 36 32 28 26 25 24 24 23 24 24 25 24 25 25 25 27 29 32 35 38 42 46 50 54 57 59 60
53 54 54 53 51 48 44 41 37 34 29 25 22 20 19 19 19 19 19 18 18 21 20 20 20 20 22 24 27 30 33 36 40 43 47 51 55 58
51 50 48 45 41 38 34 31 29 25 21 17 16 15 15 16 16 16 16 16 16 17 17 16 16 15 17 20 22 25 27 31 33 37 41 44 48 52
46 43 40 35 32 28 25 23 21 18 16 14 14 14 14 14 14 14 13 13 14 14 13 13 13 12 13 14 17 19 22 25 29 33 36 38 42 46
38 35 31 27 24 21 19 17 14 13 12 12 13 13 14 14 14 14 14 14 13 13 12 11 10 10 10 11 13 15 17 19 23 27 31 34 37 40
30 28 25 21 17 15 13 11 10 11 12 12 13 14 14 15 16 16 15 14 13 12 11 11 10 10 10 9 10 11 13 15 18 21 25 30 33 36
23 21 19 15 12 9 8 9 9 11 12 14 15 16 17 18 18 16 14 11 10 8 8 8 8 8 9 9 9 10 10 12 14 18 22 25 29 32
17 15 12 9 8 7 7 8 10 12 14 16 17 18 18 17 16 13 11 10 9 7 4 2 2 4 5 6 7 8 9 10 12 15 19 22 25 29
10 7 5 5 5 6 7 9 12 14 16 17 18 18 17 16 15 13 12 11 11 10 8 6 4 2 1 2 4 6 8 10 11 13 17 20 24 26
3 3 4 5 6 7 9 11 13 15 16 17 18 18 19 18 18 16 14 13 13 12 11 9 8 6 4 2 2 5 8 10 12 14 17 21 24 27
3 5 6 7 7 8 10 12 13 14 16 17 18 19 20 20 19 17 16 16 16 15 13 12 10 9 8 7 6 5 8 11 14 16 19 22 25 27
7 8 8 8 8 10 11 12 14 15 16 17 18 20 20 20 19 18 17 16 16 16 16 14 13 12 11 10 9 8 9 12 15 18 21 23 25 27
10 10 9 9 10 10 11 13 14 15 16 17 18 20 21 20 20 19 18 17 17 17 17 17 16 15 14 12 12 12 13 14 17 20 22 24 25 26
11 10 10 10 10 11 11 13 14 15 15 16 18 21 22 22 22 20 19 18 17 18 19 19 19 19 18 17 17 17 19 21 21 22 24 24 25 25
11 10 10 10 10 11 12 13 14 15 15 16 18 20 22 23 23 22 21 20 19 19 20 21 21 22 21 21 21 22 24 27 27 26 25 24 23 23
10 10 10 10 11 11 12 13 14 15 15 16 17 19 21 23 23 24 23 23 22 22 22 22 22 23 24 24 23 24 26 28 29 28 28 26 24 22
10 10 10 10 10 11 12 13 14 15 15 16 17 19 20 22 23 24 24 24 25 24 24 24 24 25 25 25 25 26 27 27 27 27 27 28 27 25

GEFSNE_500_meanwind_036.txt.gz
Wind_Speed
65 66 66 65 65 64 64 65 65 63 62 64 66 69 71 72 73 74 74 74 74 74 73 72 72 71 71 70 70 70 70 70 69 69 67 66 65 63
66 66 64 63 63 63 63 64 64 63 61 62 66 68 70 71 71 69 68 66 65 64 63 62 61 61 60 61 62 63 64 65 66 67 68 67 66 64
64 63 62 62 61 61 61 62 63 64 63 62 64 66 66 65 63 61 58 56 54 52 50 49 48 48 49 49 50 52 54 56 58 61 64 66 66 64
61 61 60 60 60 60 61 61 62 63 62 62 60 59 58 55 53 50 47 45 42 40 39 38 38 39 39 40 41 42 44 46 49 52 56 61 64 64
58 58 58 58 59 59 60 60 60 61 60 58 54 51 48 45 43 41 39 36 33 31 30 31 32 32 33 34 35 35 36 38 41 44 48 53 58 61
56 56 57 57 58 58 58 57 57 56 53 49 45 41 39 37 36 33 31 30 29 27 26 26 27 28 29 30 31 32 32 33 35 38 42 47 52 57
55 56 56 56 56 55 55 54 51 48 43 39 35 33 31 30 29 28 27 27 27 26 24 24 24 24 25 26 27 27 28 29 30 33 36 41 46 52
54 54 54 54 53 52 50 47 43 38 33 29 28 28 27 27 27 27 26 25 25 25 24 23 22 21 22 22 22 23 24 25 27 29 32 36 41 47
51 51 51 50 47 44 40 37 34 29 26 25 25 25 26 27 27 27 26 25 24 24 22 21 21 20 19 19 19 18 19 20 23 26 28 32 37 42
47 46 44 41 37 34 31 28 25 24 23 23 24 26 27 27 27 26 25 24 23 23 21 20 20 19 17 16 15 16 16 16 18 21 25 28 32 37
42 39 35 31 28 24 21 20 19 20 21 23 25 26 26 26 25 23 21 20 20 19 18 17 16 16 15 13 12 12 12 13 14 16 20 24 29 33
34 31 26 22 19 16 15 15 16 18 21 23 24 25 24 23 21 19 18 17 16 15 15 14 13 12 12 11 10 9 9 10 12 14 17 21 25 29
26 23 18 14 12 11 11 13 15 17 19 21 22 22 21 19 17 16 15 15 14 14 12 11 10 9 9 9 8 8 8 8 9 11 14 18 22 26
18 14 11 8 7 8 10 12 14 17 19 20 21 21 20 18 17 16 15 15 15 14 13 11 9 7 6 6 6 6 6 6 7 9 11 15 20 24
10 7 5 5 6 7 10 12 14 17 19 20 21 21 20 18 17 17 17 17 17 16 15 13 11 8 6 4 3 3 3 4 5 7 10 13 17 22
4 3 3 4 6 8 10 11 14 17 19 21 22 21 21 19 18 18 19 19 19 18 16 14 13 10 7 5 2 1 1 2 3 5 8 11 15 20
3 4 5 5 7 8 10 12 14 17 20 22 23 22 21 21 20 19 20 21 21 20 18 16 14 12 10 8 6 5 5 4 5 6 8 11 15 19
6 6 6 7 8 9 11 13 15 17 20 22 23 23 22 22 22 22 22 23 24 22 21 19 17 15 14 12 10 9 9 9 9 9 10 12 15 18
8 8 8 8 9 10 12 13 15 18 20 22 23 24 24 23 23 23 24 25 26 26 25 23 21 19 19 17 14 13 14 14 14 14 14 14 15 17
9 9 9 9 10 11 13 14 16 18 20 22 23 24 24 24 24 24 25 26 27 28 27 26 24 24 22 20 18 18 18 19 18 17 17 16 16 17
10 10 10 10 11 12 13 15 17 19 20 22 23 24 24 25 25 25 25 26 28 28 28 27 27 27 26 24 21 20 21 21 21 21 20 19 19 19
10 11 11 11 11 13 14 15 17 19 20 22 23 24 24 25 25 26 26 26 27 27 27 27 28 28 27 25 23 22 22 22 22 22 23 22 21 21
11 11 11 12 12 13 14 16 17 19 20 22 23 24 25 25 25 26 26 26 26 26 27 28 28 27 26 25 23 23 23 23 22 21 22 23 23 22

GEFSNE_500_meanwind_042.txt.gz
Wind_Speed
55 57 59 60 62 63 64 65 66 66 66 67 67 67 67 68 68 67 67 67 66 65 65 65 64 63 62 62 62 62 63 64 65 66 68 70 71 72
58 59 60 61 62 63 64 64 64 64 63 63 64 64 64 65 65 65 64 63 62 60 58 57 57 56 56 55 56 55 56 57 59 61 63 65 67 70
58 59 60 60 61 62 62 61 61 61 60 60 61 62 62 62 62 61 59 57 55 53 51 50 49 48 48 48 48 48 48 49 50 52 54 57 60 64
57 58 58 59 58 58 58 58 58 59 58 58 58 59 59 58 56 55 53 50 47 44 42 42 41 41 41 41 41 41 41 41 41 42 45 48 51 55
56 56 56 55 55 55 55 55 55 55 56 55 55 54 53 51 50 47 44 42 40 38 37 37 37 36 36 36 35 35 35 35 35 36 37 40 44 48
53 52 52 52 52 52 52 52 52 53 52 50 48 46 44 43 41 39 37 36 36 36 35 34 34 33 32 32 31 31 31 32 33 33 34 35 38 41
49 49 49 49 50 50 50 50 49 48 45 43 40 38 36 36 35 34 33 33 34 34 33 32 31 31 30 30 30 29 29 29 30 30 31 33 35 37
48 48 48 48 48 47 47 46 44 40 37 35 33 32 31 31 32 32 33 32 31 30 30 30 29 28 28 28 27 27 26 26 27 27 28 30 32 34
47 47 47 46 44 43 41 39 36 32 30 28 27 28 29 30 31 30 30 29 28 27 27 26 27 26 25 24 24 24 24 25 25 25 25 27 28 30
45 44 42 41 39 36 34 31 28 27 25 26 27 28 29 28 27 26 25 24 24 24 23 23 23 23 23 22 21 21 21 22 22 22 22 22 24 26
41 38 36 33 31 28 25 23 22 22 23 25 26 26 26 26 25 23 22 21 21 21 20 20 19 19 18 18 18 18 18 18 18 18 18 19 20 22
35 31 28 25 22 20 17 16 17 19 22 23 24 24 24 22 21 20 19 18 18 18 18 16 15 14 13 13 14 14 14 14 14 14 14 15 16 18
26 23 19 16 13 11 11 13 15 17 19 20 21 21 21 19 18 18 18 18 17 16 15 14 13 12 11 10 10 10 10 11 12 12 12 13 14 16
18 14 11 8 7 8 9 11 14 16 17 18 19 19 18 18 18 18 18 18 16 14 13 12 11 10 8 7 6 7 7 8 8 9 9 10 12 14
10 7 4 4 5 7 8 11 13 15 16 17 18 17 18 18 18 18 18 18 15 13 12 11 10 9 7 5 4 4 4 4 5 6 7 8 10 13
3 2 2 4 6 7 9 11 13 14 16 16 17 17 18 18 19 19 19 18 15 13 11 10 10 9 7 6 5 4 3 2 1 3 5 7 9 13
2 3 4 6 7 8 10 12 13 15 16 17 17 18 18 19 20 20 20 19 17 15 13 12 11 11 10 9 8 7 6 4 2 1 3 6 9 13
5 6 7 8 9 10 12 13 15 16 17 18 18 19 19 20 21 21 21 21 20 19 17 16 15 15 15 13 12 11 9 8 7 5 5 7 10 13
8 8 9 9 10 12 13 15 16 18 18 19 20 20 21 21 22 22 23 23 23 22 21 20 19 19 18 17 16 14 13 12 11 9 9 10 12 14
9 10 10 11 12 13 15 17 18 19 19 20 21 21 22 23 24 24 24 24 25 25 24 23 23 22 21 20 18 17 16 15 14 13 12 13 15 16
11 11 12 12 13 15 16 18 19 20 20 21 21 22 22 23 24 25 25 25 25 25 24 24 24 24 23 22 20 19 19 18 17 16 16 15 16 17
12 12 13 14 14 16 17 18 20 21 22 22 23 23 23 23 24 24 25 25 24 24 24 25 25 24 23 22 21 21 22 22 21 20 19 18 18 19
13 13 14 14 15 16 17 18 20 21 22 24 24 25 25 25 24 24 24 24 24 24 25 25 24 24 23 22 23 23 24 24 23 22 22 22 21 20

GEFSNE_500_meanwind_048.txt.gz
Wind_Speed
51 52 53 55 57 59 61 63 64 65 66 68 71 72 73 73 74 74 73 72 71 71 70 69 68 68 67 67 67 67 66 65 64 64 64 64 65 65
54 55 56 58 59 61 62 64 65 66 66 67 69 70 70 70 69 69 69 68 68 67 66 65 64 64 63 62 62 61 60 59 58 58 57 58 58 59
56 57 58 59 60 61 62 63 64 65 65 65 66 67 66 66 65 65 65 63 62 60 59 57 56 55 54 54 53 52 52 52 52 51 51 51 52 53
57 58 58 58 59 59 60 61 61 62 62 61 61 62 62 62 61 61 59 58 56 54 53 51 49 48 47 46 45 45 45 45 45 45 45 46 47 48
57 57 57 57 57 57 58 58 59 59 59 58 58 57 57 57 56 54 53 51 50 48 46 45 43 42 41 41 41 41 41 41 41 41 41 42 43 44
55 55 55 55 55 55 55 55 56 55 55 55 53 52 51 50 48 47 45 44 43 42 41 40 39 39 38 38 39 39 38 38 37 37 38 39 39 40
54 54 53 53 53 53 53 52 53 52 51 49 47 45 44 43 42 40 39 38 38 38 37 37 36 36 36 36 36 35 35 35 35 35 35 35 36 36
51 51 51 51 50 50 49 49 48 47 44 42 40 38 37 36 35 35 35 35 33 34 33 32 32 32 32 32 31 31 30 31 31 31 32 32 33 33
49 49 48 48 46 46 45 44 42 40 37 35 33 32 31 31 31 31 31 31 30 29 28 28 28 28 28 28 27 27 26 27 28 28 28 29 29 30
46 45 44 43 42 40 38 36 34 32 29 28 27 27 27 28 28 28 28 27 27 27 26 25 25 25 25 24 23 22 22 23 23 24 25 26 26 27
42 41 39 37 35 33 31 28 26 24 23 23 23 24 25 25 26 26 26 26 25 26 25 24 23 22 22 21 19 19 19 19 20 21 22 23 23 24
37 35 32 29 27 25 22 20 19 19 19 20 22 23 23 23 24 25 25 25 24 23 23 22 20 19 19 19 18 16 15 15 16 17 18 19 20 20
29 26 23 20 19 17 15 15 14 15 17 18 19 20 21 23 23 24 25 24 23 22 20 19 19 18 17 16 16 14 13 13 13 13 14 15 16 16
19 17 14 13 11 11 11 11 12 14 15 16 18 19 20 22 23 23 23 23 22 20 19 18 17 16 15 14 13 12 11 10 10 10 10 11 12 13
12 10 8 7 7 7 8 9 11 13 14 15 17 19 20 21 22 22 22 21 20 20 19 18 17 16 15 14 12 11 10 9 8 7 7 8 8 9
5 4 3 4 5 5 7 9 10 12 14 16 17 19 19 20 21 21 21 21 21 20 20 19 18 17 16 15 14 12 10 8 6 5 5 4 4 5
1 2 4 5 6 7 9 10 12 13 15 16 18 19 20 20 21 21 21 21 21 21 20 20 19 19 18 18 16 14 11 9 7 5 3 1 1 3
5 5 7 8 8 9 10 12 13 14 15 16 17 18 19 20 21 21 21 21 21 21 21 21 21 20 20 19 18 16 13 10 8 6 4 4 4 5
7 8 9 10 11 12 12 13 14 15 15 16 17 18 19 20 20 21 21 21 21 21 21 22 22 22 22 21 19 18 15 13 11 9 9 8 8 8
10 11 12 12 13 14 14 15 15 16 16 17 17 18 18 19 20 21 21 21 22 22 22 22 22 23 23 23 21 19 18 16 14 13 12 12 12 13
12 13 13 14 14 15 15 15 16 16 17 18 18 19 19 19 19 20 20 21 21 22 22 22 23 24 25 25 23 22 20 19 18 16 16 16 16 16
13 14 14 14 14 15 15 16 16 17 18 18 19 19 20 20 20 20 20 20 20 21 22 22 23 24 24 24 24 23 23 22 21 20 19 19 18 19
14 14 13 13 14 14 15 15 16 17 18 19 19 20 20 20 20 20 20 20 20 20 21 22 22 23 23 24 25 25 24 24 24 23 21 21 21 21